Location: The D'Auria's Ocala Star Observatory
(29.0276°N, 82.1742°W)
Time: 05:04:39
(UTC-05:00)

Daily predictions for brighter satellites

Satellite Brightness Start Highest point End
(mag) Time Altitude Azimuth Time Altitude Azimuth Time Altitude Azimuth
CZ-3 R/B 4.3 01:25:17 10° W 02:48:32 62° ESE 02:57:47 10° ESE
Intelsat 5-3 Rocket 4.4 04:35:04 57° S 04:35:04 57° S 04:49:19 10° ESE
Cosmos 2333 Rocket 3.3 04:39:22 39° ESE 04:39:22 39° ESE 04:43:17 10° SE
Cosmos 1725 Rocket 4.4 04:37:53 10° S 04:43:57 58° E 04:50:05 10° NNE
Cosmos 2219 Rocket 3.4 04:56:21 32° SSE 04:56:21 32° SSE 04:59:13 10° SSE
OAO 2 Rocket 4.5 05:09:34 34° NE 05:09:34 34° NE 05:12:52 10° ENE
Cosmos 1461 4.2 05:11:46 37° ESE 05:11:46 37° ESE 05:14:33 10° SE
Cosmos 540 Rocket 3.8 05:17:13 43° NNE 05:18:40 61° ENE 05:23:42 10° SSE
NOSS 0 Rocket 3.8 05:21:20 63° WSW 05:21:20 63° WSW 05:27:16 10° S
DELTA 2 R/B (1) 3.5 05:21:25 66° SSW 05:22:09 77° SSE 05:27:42 10° ENE
Cosmos 2237 Rocket 2.0 05:22:48 69° NW 05:23:28 80° WSW 05:29:09 10° SSE
SWIFT 3.9 05:26:24 25° S 05:26:24 25° S 05:29:45 10° SE
SL-16 R/B 3.3 05:22:49 13° N 05:27:31 42° ENE 05:32:51 10° SE
Aureole 2 Rocket 3.9 05:26:06 31° NNE 05:27:33 43° ENE 05:31:26 10° SE
Cosmos 2297 Rocket 4.2 05:33:23 14° N 05:33:23 14° N 05:34:11 10° N
Cosmos 1743 Rocket 4.0 05:27:58 26° NNE 05:30:20 59° E 05:34:37 10° SSE
Cosmos 2233 Rocket 3.9 05:26:59 10° S 05:33:12 88° W 05:39:30 10° N
Cosmos 1842 Rocket 3.5 05:29:11 10° S 05:33:30 82° E 05:37:51 10° N
COSMO-SKYMED 1 3.5 05:31:07 10° SSE 05:35:16 47° ENE 05:39:25 10° N
Milstar 3 Cent rocket 4.3 05:27:26 10° SW 05:36:20 32° SSE 05:41:35 10° E
ATLAS 2A CENTAUR R/B 2.7 05:36:04 50° SW 05:36:58 63° S 05:39:35 10° E
Meteor 1-16 Rocket 4.2 05:40:13 10° S 05:45:42 77° E 05:51:05 10° N
Cosmos 1271 Rocket 3.4 05:43:59 10° S 05:47:45 55° E 05:51:29 10° NNE
BREEZE-M DEB (TANK) 2.8 05:52:33 37° NW 05:54:18 77° SW 05:56:55 10° SE
Cosmos 1500 Rocket 3.5 05:53:00 10° N 05:57:28 89° ESE 06:01:55 10° S
Cosmos 1816 Rocket 4.5 05:53:14 10° NNW 05:59:24 59° W 06:05:29 10° S
Ariane Rocket 3.0 05:55:39 10° NNE 06:00:46 89° E 06:05:52 10° SSW
Cosmos 371 Rocket 4.5 06:02:15 24° WSW 06:02:15 24° WSW 06:05:23 10° SSW
SL-14 R/B 3.9 05:57:46 10° N 06:01:46 58° E 06:05:45 10° SSE
Thor Agena Rocket 4.3 05:59:05 10° SSW 06:03:41 31° W 06:05:00 28° WNW
SKYMED 3 4.4 06:00:57 10° S 06:05:16 70° W 06:09:36 10° NNW
Cosmos 2346 Rocket 4.3 05:59:22 10° N 06:05:28 77° W 06:11:30 10° S
Cosmos 1674 4.2 06:09:04 20° WSW 06:09:04 20° WSW 06:10:50 10° SW
Meteor 2-1 Rocket 4.3 06:04:08 10° S 06:09:41 80° E 06:15:21 10° N
DMSP B5D1-3 4.5 06:05:15 10° SSE 06:10:23 88° W 06:15:31 10° NNW
CZ-2C R/B 3.4 06:14:42 10° NNE 06:19:06 46° E 06:23:29 10° S
Cosmos 2333 Rocket 3.7 06:21:27 15° W 06:21:27 15° W 06:24:39 10° SW
Tiangong 2 0.9 06:19:35 17° SW 06:21:52 87° NNW 06:24:59 10° NE
SKYMED 2 4.0 06:19:16 10° S 06:23:19 40° W 06:27:25 10° NNW
Cosmos 1464 Rocket 4.0 06:17:16 10° S 06:23:37 78° W 06:29:57 10° N
CZ-4 R/B 2.1 06:20:13 10° NNE 06:24:15 59° E 06:28:19 10° S
Cosmos 968 Rocket 4.5 06:20:46 10° WSW 06:24:59 24° WNW 06:29:13 10° NNW
PAYLOAD A 3.8 06:22:14 10° N 06:27:13 85° WNW 06:31:59 10° SSW
CSL-04 Debris 4.1 06:21:54 10° N 06:27:22 73° WNW 06:32:46 10° SSW
DELTA 2 R/B(2) 2.9 06:28:34 27° WSW 06:29:23 81° NNW 06:31:45 10° ENE
Cosmos 2263 Rocket 3.4 06:25:16 10° S 06:30:38 47° ESE 06:36:04 10° NNE
CZ-3 R/B 4.1 06:21:34 13° W 06:31:10 20° WSW 06:36:54 10° SSW
GPS 2-05 Rocket1 4.0 06:31:02 17° NW 06:32:45 26° N 06:35:38 10° NE
Meteor 2-12 Rocket 4.4 06:27:22 10° SSW 06:33:25 63° W 06:39:31 10° N
Cosmos 1908 4.5 06:30:52 10° SSE 06:34:30 44° E 06:38:08 10° NNE
YAOGAN 1 3.5 06:31:43 10° NNE 06:35:57 54° E 06:40:11 10° S
Cosmos 773 Rocket 4.1 06:36:37 10° NNW 06:41:55 82° ENE 06:47:12 10° SSE
Coronas F rocket 4.1 06:41:10 10° NE 06:42:52 17° E 06:44:34 10° SE
ATLAS 2A CENTAUR R/B 3.7 06:26:54 12° W 06:44:04 63° SSW 06:48:15 10° ESE
USA 229 DEB 4.3 06:39:16 10° NW 06:45:57 43° WSW 06:52:41 10° S
Cosmos 2221 3.1 06:41:58 10° SSW 06:45:57 35° W 06:49:56 10° NNW
USA 229 4.2 06:39:21 10° NW 06:46:03 43° WSW 06:52:48 10° S
Cosmos 1666 Rocket 4.3 06:43:54 10° N 06:48:19 59° E 06:52:43 10° SSE
MSX 4.5 06:43:05 10° NNE 06:48:47 63° ESE 06:54:29 10° S
ATLAS 3B CENTAUR R/B 4.2 06:43:46 10° WSW 06:50:21 65° SSE 07:10:09 10° E
ISS -2.6 06:49:32 10° NNW 06:52:42 50° NE 06:55:53 10° ESE
Delta 198 4.3 06:49:12 10° WSW 06:52:46 41° S 06:56:48 10° ESE
OAO 2 Rocket 3.7 06:48:40 10° WNW 06:53:29 53° NNE 06:58:19 10° E
APEX 4.0 06:49:15 10° S 06:53:50 62° ESE 06:57:26 10° NNE
CSL-04 Rocket 4.4 06:51:49 10° N 06:56:21 30° WNW 07:00:52 10° SW
Cosmos 2058 3.7 06:56:29 10° NNW 07:00:07 31° W 07:03:46 10° SSW
NOSS 3-1 (A) 4.5 06:52:11 10° NNW 07:00:07 74° ENE 07:08:37 10° SE
Genesis I 3.7 06:56:17 10° NNW 07:00:10 61° ENE 07:04:01 10° SE
